Location: Unspecified
(50.7693°N, 0.0000°E)
Time: 12:48:05
(UTC+00:00)

Vanguard 2 - Pass Details

Date: 19 June 2019
Orbit: 553 x 2938 km, 32.9° (Epoch: 17 August)

Event Time Altitude Azimuth Distance (km) Brightness Sun altitude
Rises 13:20:00 0° 257° (WSW) 4,641 11.9 58.7°
Reaches altitude 10° 13:23:25 10° 244° (WSW) 4,004 11.8 58.4°
Maximum altitude 13:31:54 25° 195° (SSW) 3,647 12.0 57.5°
Drops below altitude 10° 13:43:14 10° 149° (SSE) 5,454 12.1 56.3°
Sets 13:49:03 0° 138° (SE) 6,679 12.3 55.6°
